Location: Cornospital
(48.0620°N, 3.3837°W)
Time: 19:31:51
(UTC+00:00)

Cosmos 2278 Rocket - Pass Details

Date: 17 June 2021
Orbit: 840 x 847 km, 71.0° (Epoch: 02 August)

Event Time Altitude Azimuth Distance (km) Brightness Sun altitude
Rises 23:35:02 0° 329° (NNW) 3,411 6.6 -18.0°
Reaches altitude 10° 23:37:31 10° 325° (NW) 2,473 5.6 -18.0°
Maximum altitude 23:43:03 56° 249° (WSW) 1,001 2.5 -18.2°
Enters shadow 23:45:34 31° 186° (S) 1,438 2.8 -18.2°
